Tiempo cada hora Aberfeldy

Hoy, 27 Octubre, Martes

Tiempo Temperatura Precipitaciones Viento Presión Humedad
00:00 +5°C° 0 mm 2 mps 716 mmHg 96%
01:00 +6°C° 0 mm 1 mps 716 mmHg 96%
02:00 +6°C° 0 mm 1 mps 716 mmHg 95%
03:00 +6°C° 0 mm 1 mps 716 mmHg 95%
04:00 +5°C° 0 mm 1 mps 716 mmHg 95%
05:00 +5°C° 0 mm 1 mps 716 mmHg 94%
06:00 +4°C° 0 mm 1 mps 716 mmHg 94%
07:00 +5°C° 0 mm 1 mps 715 mmHg 94%
08:00 +5°C° 0 mm 1 mps 715 mmHg 94%
09:00 +5°C° 0 mm 1 mps 715 mmHg 94%
10:00 +6°C° 0.1 mm 1 mps 714 mmHg 94%
11:00 +6°C° 0.1 mm 1 mps 713 mmHg 93%
12:00 +6°C° 0.1 mm 2 mps 713 mmHg 92%
13:00 +6°C° 1.1 mm 2 mps 712 mmHg 94%
14:00 +5°C° 1.1 mm 2 mps 712 mmHg 96%
15:00 +6°C° 1.1 mm 1 mps 711 mmHg 98%
16:00 +5°C° 1.1 mm 2 mps 711 mmHg 97%
17:00 +5°C° 1.1 mm 2 mps 711 mmHg 97%
18:00 +4°C° 1.1 mm 3 mps 711 mmHg 96%
19:00 +5°C° 0.3 mm 2 mps 712 mmHg 95%
20:00 +4°C° 0.3 mm 2 mps 712 mmHg 94%
21:00 +4°C° 0.3 mm 2 mps 712 mmHg 93%
22:00 +3°C° 0 mm 2 mps 712 mmHg 93%
23:00 +3°C° 0 mm 2 mps 712 mmHg 94%

Mañana, 28 Octubre, Miércoles

Tiempo Temperatura Precipitaciones Viento Presión Humedad
00:00 +2°C° 0 mm 2 mps 712 mmHg 94%
01:00 +3°C° 0 mm 2 mps 712 mmHg 95%
02:00 +4°C° 0 mm 2 mps 713 mmHg 95%
03:00 +4°C° 0 mm 2 mps 713 mmHg 95%
04:00 +4°C° 0 mm 2 mps 713 mmHg 95%
05:00 +3°C° 0 mm 3 mps 713 mmHg 95%
06:00 +3°C° 0 mm 3 mps 713 mmHg 95%
07:00 +4°C° 0.1 mm 3 mps 713 mmHg 94%
08:00 +4°C° 0.1 mm 3 mps 713 mmHg 94%
09:00 +4°C° 0.1 mm 4 mps 713 mmHg 93%
10:00 +4°C° 0.2 mm 4 mps 714 mmHg 92%
11:00 +5°C° 0.2 mm 4 mps 714 mmHg 92%
12:00 +5°C° 0.2 mm 4 mps 714 mmHg 91%
13:00 +5°C° 0.4 mm 4 mps 715 mmHg 91%
14:00 +5°C° 0.4 mm 4 mps 715 mmHg 91%
15:00 +5°C° 0.4 mm 3 mps 715 mmHg 91%
16:00 +4°C° 0.1 mm 3 mps 715 mmHg 92%
17:00 +4°C° 0.1 mm 3 mps 715 mmHg 93%
18:00 +4°C° 0.1 mm 3 mps 716 mmHg 94%
19:00 +4°C° 0.6 mm 3 mps 716 mmHg 95%
20:00 +4°C° 0.6 mm 3 mps 717 mmHg 96%
21:00 +5°C° 0.6 mm 2 mps 717 mmHg 96%
22:00 +5°C° 0.3 mm 2 mps 718 mmHg 96%
23:00 +5°C° 0.3 mm 2 mps 718 mmHg 96%

Pasado mañana, 29 Octubre, Jueves

Tiempo Temperatura Precipitaciones Viento Presión Humedad
00:00 +4°C° 0.3 mm 3 mps 719 mmHg 96%
01:00 +5°C° 0.1 mm 3 mps 720 mmHg 95%
02:00 +5°C° 0.1 mm 3 mps 721 mmHg 94%
03:00 +5°C° 0.1 mm 3 mps 721 mmHg 92%
04:00 +4°C° 0 mm 3 mps 722 mmHg 93%
05:00 +4°C° 0 mm 3 mps 723 mmHg 93%
06:00 +4°C° 0 mm 3 mps 724 mmHg 93%
07:00 +5°C° 0 mm 2 mps 725 mmHg 92%
08:00 +5°C° 0 mm 2 mps 725 mmHg 91%
09:00 +5°C° 0 mm 2 mps 726 mmHg 91%
10:00 +5°C° 0 mm 2 mps 726 mmHg 90%
11:00 +6°C° 0 mm 2 mps 726 mmHg 90%
12:00 +7°C° 0 mm 2 mps 726 mmHg 90%
13:00 +7°C° 0.5 mm 2 mps 725 mmHg 93%
14:00 +7°C° 0.5 mm 2 mps 725 mmHg 95%
15:00 +7°C° 0.5 mm 2 mps 725 mmHg 98%
16:00 +7°C° 0.9 mm 2 mps 724 mmHg 98%
17:00 +7°C° 0.9 mm 2 mps 724 mmHg 98%
18:00 +8°C° 0.9 mm 3 mps 724 mmHg 98%
19:00 +8°C° 1.1 mm 3 mps 723 mmHg 98%
20:00 +9°C° 1.1 mm 3 mps 723 mmHg 98%
21:00 +9°C° 1.1 mm 3 mps 723 mmHg 98%
22:00 +10°C° 1.2 mm 3 mps 723 mmHg 98%
23:00 +10°C° 1.2 mm 4 mps 722 mmHg 98%

30 Octubre, Viernes

Tiempo Temperatura Precipitaciones Viento Presión Humedad
00:00 +10°C° 1.2 mm 4 mps 722 mmHg 98%
01:00 +10°C° 0.4 mm 4 mps 722 mmHg 97%
02:00 +11°C° 0.4 mm 4 mps 722 mmHg 97%
03:00 +11°C° 0.4 mm 4 mps 722 mmHg 96%
04:00 +11°C° 0.1 mm 4 mps 723 mmHg 96%
05:00 +10°C° 0.1 mm 4 mps 723 mmHg 95%
06:00 +10°C° 0.1 mm 4 mps 723 mmHg 94%
07:00 +10°C° 0 mm 3 mps 724 mmHg 94%
08:00 +10°C° 0 mm 3 mps 724 mmHg 94%
09:00 +9°C° 0 mm 3 mps 725 mmHg 94%
10:00 +10°C° 0.1 mm 3 mps 726 mmHg 89%
11:00 +11°C° 0.1 mm 4 mps 727 mmHg 85%
12:00 +11°C° 0.1 mm 4 mps 728 mmHg 80%
13:00 +11°C° 0 mm 4 mps 729 mmHg 80%
14:00 +10°C° 0 mm 3 mps 730 mmHg 80%
15:00 +9°C° 0 mm 3 mps 731 mmHg 80%
16:00 +8°C° 0 mm 2 mps 731 mmHg 84%
17:00 +7°C° 0 mm 2 mps 732 mmHg 87%
18:00 +6°C° 0 mm 1 mps 733 mmHg 91%
19:00 +6°C° 0 mm 1 mps 733 mmHg 92%
20:00 +6°C° 0 mm 1 mps 734 mmHg 92%
21:00 +5°C° 0 mm 1 mps 734 mmHg 93%
22:00 +4°C° 0 mm 0 mps 734 mmHg 93%
23:00 +4°C° 0 mm 0 mps 734 mmHg 93%

31 Octubre, Sábado

Tiempo Temperatura Precipitaciones Viento Presión Humedad
00:00 +4°C° 0 mm 0 mps 734 mmHg 92%
01:00 +4°C° 0 mm 0 mps 734 mmHg 92%
02:00 +4°C° 0 mm 0 mps 733 mmHg 91%
03:00 +6°C° 0 mm 1 mps 733 mmHg 90%
04:00 +6°C° 1.2 mm 1 mps 732 mmHg 92%
05:00 +5°C° 1.2 mm 2 mps 731 mmHg 94%
06:00 +4°C° 1.2 mm 2 mps 730 mmHg 97%
07:00 +4°C° 2.8 mm 3 mps 728 mmHg 97%
08:00 +4°C° 2.8 mm 4 mps 727 mmHg 97%
09:00 +3°C° 2.8 mm 5 mps 725 mmHg 97%
10:00 +5°C° 3.7 mm 4 mps 723 mmHg 97%
11:00 +7°C° 3.7 mm 3 mps 721 mmHg 98%
12:00 +7°C° 3.7 mm 2 mps 719 mmHg 98%
13:00 +8°C° 1.6 mm 4 mps 718 mmHg 97%
14:00 +9°C° 1.6 mm 5 mps 717 mmHg 96%
15:00 +10°C° 1.6 mm 6 mps 716 mmHg 95%
16:00 +10°C° 0.3 mm 6 mps 716 mmHg 94%
17:00 +9°C° 0.3 mm 6 mps 716 mmHg 94%
18:00 +9°C° 0.3 mm 5 mps 716 mmHg 94%
19:00 +8°C° 0.1 mm 5 mps 717 mmHg 93%
20:00 +6°C° 0.1 mm 5 mps 718 mmHg 92%
21:00 +5°C° 0.1 mm 5 mps 718 mmHg 91%
22:00 +5°C° 0 mm 5 mps 719 mmHg 91%
23:00 +4°C° 0 mm 4 mps 720 mmHg 92%

1 Noviembre, Domingo

Tiempo Temperatura Precipitaciones Viento Presión Humedad
00:00 +4°C° 0 mm 3 mps 721 mmHg 92%
01:00 +4°C° 0.1 mm 3 mps 720 mmHg 94%
02:00 +4°C° 0.1 mm 3 mps 719 mmHg 95%
03:00 +4°C° 0.1 mm 3 mps 718 mmHg 96%
04:00 +5°C° 2.9 mm 4 mps 716 mmHg 97%
05:00 +6°C° 2.9 mm 4 mps 715 mmHg 97%
06:00 +7°C° 2.9 mm 4 mps 713 mmHg 98%
07:00 +8°C° 1.1 mm 5 mps 713 mmHg 97%
08:00 +10°C° 1.1 mm 7 mps 713 mmHg 95%
09:00 +11°C° 1.1 mm 8 mps 713 mmHg 94%
10:00 +10°C° 2.8 mm 6 mps 713 mmHg 95%
11:00 +10°C° 2.8 mm 5 mps 713 mmHg 96%
12:00 +11°C° 2.8 mm 3 mps 712 mmHg 97%
13:00 +10°C° 1.8 mm 4 mps 713 mmHg 96%
14:00 +10°C° 1.8 mm 4 mps 713 mmHg 96%
15:00 +10°C° 1.8 mm 4 mps 713 mmHg 96%
16:00 +8°C° 0.3 mm 4 mps 714 mmHg 93%
17:00 +6°C° 0.3 mm 4 mps 714 mmHg 90%
18:00 +5°C° 0.3 mm 5 mps 715 mmHg 87%
19:00 +5°C° 0.1 mm 5 mps 716 mmHg 87%
20:00 +5°C° 0.1 mm 5 mps 717 mmHg 88%
21:00 +5°C° 0.1 mm 5 mps 718 mmHg 88%
22:00 +5°C° 0.2 mm 5 mps 718 mmHg 88%
23:00 +5°C° 0.2 mm 5 mps 719 mmHg 88%
Mostrar más

Necesitamos Su Consentimiento

Meteoprog y nuestros Proveedores de Servicios pueden almacenar y acceder a sus datos personales como cookies, identificadores de dispositivo u otras tecnologías similares de su dispositivo y procesar dichos datos para personalizar contenido y anuncios, además de ofrecer funciones de redes sociales y analizar el tráfico.

  • Almacenar y/o acceder a información en su dispositivo

    Se puede almacenar o acceder a cookies, identificadores de dispositivo u otra información de su dispositivo para los fines anteriormente indicados.

  • Anuncios y contenido personalizados, medición de anuncios y contenido, percepciones del público, y desarrollo de productos

    Los anuncios y el contenido pueden personalizarse en base a su perfil. Se pueden añadir más datos para personalizar mejor los anuncios y contenidos. Se puede medir el rendimiento de los anuncios y contenidos. Se puede obtener la percepción sobre el público que ha visto los anuncios y contenidos. Dichos datos pueden usarse para desarrollar o mejorar la experiencia del usuario, sistemas y software.

Al hacer clic en ‘Estoy De Acuerdo’ usted permitirá el uso de las cookies, identificadores de dispositivo, balizas web u otras tecnologías similares indicadas. Su configuración puede cambiarse desde el navegador de su dispositivo.

Para ciertos fines, los intereses legítimos pueden ser considerados por encima del consentimiento. Puede leer más sobre ello en nuestra Política de Privacidad y Cookies.